Saint Simons Island, GA

7:25 PM EST on February 06, 2016 (GMT -0500)
McKinnon

Weather History for KSSI - May, 2013

Change the Weather History Date:

Wednesday, May 22, 2013

  Actual Average Record
Temperature  
Mean Temperature 76 °F 76 °F  
Max Temperature 83 °F 84 °F 94 °F (1962)
Min Temperature 69 °F 69 °F 53 °F (1954)
Degree Days  
Heating Degree Days 0 0  
Month to date heating degree days 1 2  
Since 1 July heating degree days 1268 1486  
Cooling Degree Days 11 11  
Month to date cooling degree days 150 188  
Year to date cooling degree days 296 331  
Growing Degree Days 26 (Base 50)    
Moisture  
Dew Point 69 °F    
Average Humidity 81    
Maximum Humidity 97    
Minimum Humidity 65    
Precipitation  
Precipitation 0.00 in 0.06 in 2.12 in (1985)
Month to date precipitation 3.40 1.13  
Year to date precipitation 12.42 14.19  
Snow  
Snow 0.00 in - 0.00 in ()
Month to date snowfall 0.0  
Since 1 July snowfall 0.0  
Snow Depth 0.00 in    
Sea Level Pressure  
Sea Level Pressure 29.99 in    
Wind  
Wind Speed 6 mph (SE)    
Max Wind Speed 13 mph    
Max Gust Speed 16 mph    
Visibility 10 miles    
Events      
T = Trace of Precipitation, MM = Missing Value Source: NWS Daily Summary

Daily Weather History Graph

Daily Weather History Graph

Search for Another Location

Airport or City:

Trip Planner

Search our weather history database for the weather conditions in past years. The results will help you decide how hot, cold, wet, or windy it might be!

Date:

Astronomy

May. 22, 2013 Rise Set
Actual Time 6:25 AM EDT 8:19 PM EDT
Civil Twilight 5:58 AM EDT 8:46 PM EDT
Nautical Twilight 5:26 AM EDT 9:18 PM EDT
Astronomical Twilight 4:51 AM EDT 9:53 PM EDT
Moon 5:48 PM EDT (5/22) 4:18 AM EDT (5/22)
Length of Visible Light 14h 47m
Length of Day
13h 53m
Waxing Gibbous, 91% of the Moon is Illuminated
May 22
Waxing Gibbous
May 25
Full
May 31
Last Quarter
Jun 8
New
Jun 16
First Quarter

Hourly Weather History & Observations

Time (EDT) Temp. Heat Index Dew Point Humidity Pressure Visibility Wind Dir Wind Speed Gust Speed Precip Events Conditions
12:44 AM 73.4 °F - 69.8 °F 88% 30.00 in 10.0 mi SSE 6.9 mph - N/A   Mostly Cloudy
12:51 AM 73.4 °F - 69.8 °F 88% 30.00 in 10.0 mi SSE 5.8 mph - N/A   Scattered Clouds
12:53 AM 73.9 °F - 70.0 °F 87% 30.00 in 10.0 mi SSE 5.8 mph - N/A   Scattered Clouds
1:53 AM 73.0 °F - 69.1 °F 87% 29.99 in 10.0 mi SSE 4.6 mph - N/A   Clear
2:53 AM 73.0 °F - 69.1 °F 87% 29.99 in 10.0 mi Calm Calm - N/A   Partly Cloudy
3:53 AM 71.1 °F - 68.0 °F 90% 29.98 in 10.0 mi Calm Calm - N/A   Mostly Cloudy
4:03 AM 71.6 °F - 68.0 °F 88% 29.98 in 10.0 mi Calm Calm - N/A   Scattered Clouds
4:53 AM 71.1 °F - 66.9 °F 87% 29.97 in 10.0 mi Calm Calm - N/A   Clear
5:53 AM 69.1 °F - 68.0 °F 96% 29.98 in 10.0 mi Calm Calm - N/A   Clear
6:53 AM 70.0 °F - 68.0 °F 93% 29.99 in 8.0 mi Calm Calm - N/A   Clear
7:53 AM 75.0 °F - 71.1 °F 87% 30.00 in 10.0 mi ESE 3.5 mph - N/A   Clear
8:04 AM 75.2 °F - 71.6 °F 89% 30.00 in 10.0 mi ESE 4.6 mph - N/A   Partly Cloudy
8:53 AM 77.0 °F - 69.1 °F 76% 30.01 in 10.0 mi Calm Calm - N/A   Partly Cloudy
9:18 AM 78.8 °F - 69.8 °F 74% 30.01 in 10.0 mi Calm Calm - N/A   Mostly Cloudy
9:53 AM 80.1 °F 82.9 °F 69.1 °F 69% 30.01 in 10.0 mi ESE 8.1 mph - N/A   Mostly Cloudy
10:09 AM 78.8 °F - 69.8 °F 74% 30.01 in 10.0 mi ESE 6.9 mph - N/A   Scattered Clouds
10:53 AM 79.0 °F - 70.0 °F 74% 30.02 in 10.0 mi ESE 8.1 mph - N/A   Partly Cloudy
11:53 AM 81.0 °F 84.1 °F 69.1 °F 67% 30.02 in 10.0 mi East 9.2 mph - N/A   Partly Cloudy
12:53 PM 82.0 °F 85.9 °F 70.0 °F 67% 30.02 in 10.0 mi SE 11.5 mph - N/A   Mostly Cloudy
1:53 PM 81.0 °F 84.1 °F 69.1 °F 67% 30.01 in 10.0 mi East 10.4 mph - N/A   Clear
2:53 PM 80.1 °F 82.7 °F 68.0 °F 67% 30.00 in 10.0 mi East 6.9 mph - N/A   Scattered Clouds
3:53 PM 79.0 °F - 68.0 °F 69% 29.97 in 10.0 mi ESE 10.4 mph - N/A   Overcast
4:53 PM 78.1 °F - 68.0 °F 71% 29.96 in 10.0 mi East 9.2 mph - N/A   Overcast
5:53 PM 80.1 °F 82.9 °F 69.1 °F 69% 29.95 in 10.0 mi East 11.5 mph - N/A   Mostly Cloudy
6:53 PM 77.0 °F - 70.0 °F 79% 29.94 in 10.0 mi ESE 10.4 mph - N/A   Clear
7:53 PM 75.9 °F - 70.0 °F 82% 29.94 in 10.0 mi SE 9.2 mph - N/A   Clear
8:53 PM 75.0 °F - 71.1 °F 87% 29.96 in 10.0 mi SSE 6.9 mph - N/A   Clear
9:53 PM 75.0 °F - 70.0 °F 84% 29.96 in 10.0 mi SSE 4.6 mph - N/A   Clear
10:53 PM 75.0 °F - 70.0 °F 84% 29.96 in 10.0 mi SSE 5.8 mph - N/A   Clear
11:53 PM 75.0 °F - 70.0 °F 84% 29.97 in 10.0 mi South 3.5 mph - N/A   Partly Cloudy